TimeMST,TemperatureF,Dew PointF,Humidity,Sea Level PressureIn,VisibilityMPH,Wind Direction,Wind SpeedMPH,Gust SpeedMPH,PrecipitationIn,Events,Conditions,WindDirDegrees,DateUTC
12:53 AM,44.1,30.0,58,29.64,10.0,Calm,Calm,-,N/A,,Overcast,0,2013-12-02 07:53:00
1:53 AM,42.1,33.1,70,29.63,10.0,Calm,Calm,-,0.01,Rain,Light Rain,0,2013-12-02 08:53:00
2:53 AM,43.0,34.0,71,29.59,10.0,WSW,4.6,-,0.00,,Overcast,250,2013-12-02 09:53:00
3:53 AM,39.9,34.0,79,29.59,10.0,ENE,4.6,-,N/A,,Overcast,70,2013-12-02 10:53:00
4:53 AM,37.9,35.1,89,29.60,10.0,NE,9.2,-,0.01,Rain,Light Rain,40,2013-12-02 11:53:00
5:53 AM,37.9,35.1,89,29.58,10.0,ENE,8.1,-,0.01,Rain,Light Rain,60,2013-12-02 12:53:00
6:53 AM,37.0,36.0,96,29.60,10.0,ENE,6.9,-,0.03,,Overcast,70,2013-12-02 13:53:00
7:15 AM,37.0,35.1,93,29.58,10.0,NE,8.1,-,0.00,Rain,Light Rain,50,2013-12-02 14:15:00
7:53 AM,37.0,35.1,93,29.61,7.0,SE,8.1,-,0.06,Rain,Rain,140,2013-12-02 14:53:00
8:12 AM,36.0,35.1,97,29.57,6.0,ESE,8.1,-,0.04,Rain,Light Rain,110,2013-12-02 15:12:00
8:30 AM,36.0,34.0,93,29.56,9.0,East,11.5,-,0.04,,Mostly Cloudy,100,2013-12-02 15:30:00
8:53 AM,36.0,34.0,93,29.60,10.0,SE,10.4,-,0.04,Rain,Light Rain,130,2013-12-02 15:53:00
9:15 AM,36.0,34.0,93,29.56,9.0,SSE,4.6,-,0.01,Rain-Snow,Light Rain,150,2013-12-02 16:15:00
9:35 AM,36.0,34.0,93,29.55,9.0,SE,11.5,-,0.02,Rain,Light Rain,130,2013-12-02 16:35:00
9:53 AM,37.0,35.1,93,29.58,10.0,SSE,11.5,-,0.03,,Mostly Cloudy,150,2013-12-02 16:53:00
10:53 AM,37.9,35.1,89,29.57,10.0,ESE,9.2,-,N/A,,Mostly Cloudy,110,2013-12-02 17:53:00
11:53 AM,37.9,35.1,89,29.55,10.0,ENE,9.2,-,0.01,,Mostly Cloudy,60,2013-12-02 18:53:00
12:07 PM,37.0,36.0,96,29.52,10.0,NE,11.5,-,N/A,,Mostly Cloudy,40,2013-12-02 19:07:00
12:21 PM,37.4,35.6,93,29.52,10.0,ENE,12.7,-,N/A,,Overcast,60,2013-12-02 19:21:00
12:53 PM,37.9,36.0,93,29.54,10.0,ESE,13.8,-,N/A,,Mostly Cloudy,110,2013-12-02 19:53:00
1:09 PM,39.0,36.0,89,29.50,10.0,East,10.4,-,N/A,Rain,Light Rain,100,2013-12-02 20:09:00
1:21 PM,39.0,36.0,89,29.49,10.0,East,12.7,-,N/A,Rain,Light Rain,90,2013-12-02 20:21:00
1:53 PM,37.9,36.0,93,29.53,9.0,ENE,6.9,-,N/A,Rain,Light Rain,70,2013-12-02 20:53:00
2:53 PM,37.9,34.0,86,29.53,6.0,NE,6.9,-,0.06,Rain,Light Rain,40,2013-12-02 21:53:00
3:06 PM,37.0,34.0,89,29.51,6.0,NNE,6.9,-,0.02,Rain,Light Rain,30,2013-12-02 22:06:00
3:35 PM,36.0,33.1,89,29.52,5.0,ENE,9.2,-,0.07,Rain-Snow,Rain,60,2013-12-02 22:35:00
3:53 PM,35.1,33.1,92,29.58,8.0,East,6.9,-,0.10,Rain-Snow,Light Rain,90,2013-12-02 22:53:00
4:20 PM,33.1,32.0,96,29.52,1.0,ESE,6.9,-,0.04,Snow,Light Snow,120,2013-12-02 23:20:00
4:37 PM,32.0,32.0,100,29.54,0.5,SSW,4.6,-,0.08,Snow,Light Snow,200,2013-12-02 23:37:00
4:53 PM,32.0,30.9,96,29.61,0.1,West,4.6,-,0.09,Fog-Snow,Snow,260,2013-12-02 23:53:00
4:57 PM,32.0,30.9,96,29.55,1.0,WSW,5.8,-,0.00,Snow,Light Snow,250,2013-12-02 23:57:00
5:23 PM,32.0,30.9,96,29.57,0.2,WSW,11.5,-,0.04,Fog-Snow,Heavy Snow,240,2013-12-03 00:23:00
5:33 PM,32.0,30.9,96,29.57,0.5,WSW,8.1,-,0.06,Snow,Light Snow,240,2013-12-03 00:33:00
5:53 PM,32.0,30.9,96,29.65,0.8,North,17.3,23.0,0.11,Snow,Light Snow,350,2013-12-03 00:53:00
6:28 PM,30.9,30.9,100,29.59,0.5,North,17.3,23.0,0.06,Snow,Light Snow,10,2013-12-03 01:28:00
6:44 PM,30.0,28.0,92,29.61,0.8,NNE,18.4,26.5,0.07,Snow,Light Snow,20,2013-12-03 01:44:00
6:51 PM,30.2,28.4,93,29.61,1.0,NNE,21.9,27.6,0.07,Snow,Light Snow,20,2013-12-03 01:51:00
6:53 PM,28.9,27.0,92,29.68,1.0,NNE,21.9,27.6,0.07,Snow,Light Snow,20,2013-12-03 01:53:00
7:02 PM,28.9,27.0,92,29.62,1.5,NNE,16.1,26.5,0.00,Snow,Light Snow,30,2013-12-03 02:02:00
7:25 PM,28.0,27.0,96,29.63,1.2,NNE,13.8,-,0.01,Snow,Light Snow,30,2013-12-03 02:25:00
7:51 PM,26.6,24.8,93,29.65,1.0,North,23.0,-,0.01,Snow,Light Snow,360,2013-12-03 02:51:00
7:53 PM,27.0,24.1,89,29.72,1.0,North,18.4,-,0.01,Snow,Light Snow,10,2013-12-03 02:53:00
8:19 PM,26.1,21.9,84,29.66,9.0,North,21.9,27.6,0.00,Snow,Light Snow,10,2013-12-03 03:19:00
8:37 PM,26.1,21.9,84,29.68,2.0,North,16.1,31.1,0.00,Snow,Light Snow,10,2013-12-03 03:37:00
8:53 PM,25.0,21.9,88,29.77,1.5,North,15.0,-,0.00,Snow,Light Snow,10,2013-12-03 03:53:00
9:00 PM,25.0,21.9,88,29.68,1.0,NNE,16.1,-,0.00,Snow,Light Snow,20,2013-12-03 04:00:00
9:10 PM,25.0,23.0,92,29.67,0.5,NNE,13.8,-,0.01,Snow,Snow,20,2013-12-03 04:10:00
9:53 PM,24.1,21.9,91,29.79,0.8,North,11.5,-,0.03,Snow,Light Snow,10,2013-12-03 04:53:00
10:12 PM,21.9,19.0,89,29.72,1.0,North,15.0,-,0.01,Snow,Light Snow,10,2013-12-03 05:12:00
10:25 PM,21.9,18.0,85,29.72,1.5,NNE,18.4,-,0.01,Snow,Light Snow,20,2013-12-03 05:25:00
10:30 PM,21.0,18.0,88,29.71,0.8,NNE,17.3,-,0.01,Snow,Light Snow,20,2013-12-03 05:30:00
10:53 PM,21.0,17.1,85,29.84,1.0,NNE,17.3,-,0.01,Snow,Light Snow,30,2013-12-03 05:53:00
11:16 PM,19.9,17.1,89,29.77,0.8,NNE,9.2,-,0.00,Snow,Light Snow,20,2013-12-03 06:16:00
11:24 PM,19.9,18.0,92,29.77,0.8,NNE,6.9,-,0.00,Snow,Light Snow,30,2013-12-03 06:24:00
11:53 PM,19.9,18.0,92,29.86,0.8,NE,9.2,-,0.03,Snow,Light Snow,40,2013-12-03 06:53:00